[[{"header":{"parameterUnit":"m.s-1","parameterCategory":1,"la1":30.2991,"la2":30.254,"lo1":-89.0895,"lo2":-89.0444,"dy":0.0017,"dx":0.0017,"nx":28,"ny":28,"refTime":"2025-08-30T21:00:00:Z","depth":0,"parameterNumber":2,"parameterNumberName":"U-component_of_WINDS"},"data":[0,0,0,0,0,0,0,0,0,0,0,0,0,0,0,0,0,0,0,0,0,0,0,0,0,0,0,0,0,0,0,0,0,0,0,0,0,0,0,0,0,0,0,0,0,0,0,0,0,0,0,0,0,0,0,0,0,0,-0.6048,-0.6047,0,-0.599,-0.5989,-0.5988,-0.5967,-0.5967,-0.5968,-0.5968,-0.5902,-0.59,-0.5898,0,0,0,0,0,0,0,0,0,0,0,0,0,-0.6135,-0.6133,-0.6048,-0.6047,-0.6047,-0.599,-0.5989,-0.5988,-0.5967,-0.5967,-0.5968,-0.5968,-0.5902,-0.59,-0.5898,0,0,0,0,0,0,0,0,0,0,0,0,0,-0.6089,-0.6133,-0.6048,-0.6029,-0.6027,-0.599,-0.5989,-0.5988,-0.5967,-0.5967,-0.5968,-0.5968,-0.5903,-0.59,-0.5897,-0.5873,0,0,-0.5888,-0.5887,0,0,0,0,0,0,0,0,-0.6091,-0.6086,-0.6033,-0.6031,-0.6028,-0.5986,-0.5995,-0.5949,-0.5967,-0.599,-0.5968,-0.5968,-0.5929,-0.5924,-0.5912,-0.587,-0.5867,-0.5888,-0.5886,-0.5885,-0.5884,0,0,0,0,0,0,0,-0.6095,-0.6088,-0.6025,-0.6032,-0.6029,-0.6022,-0.6016,-0.5986,-0.5958,-0.5988,-0.5986,-0.598,-0.5928,-0.5915,-0.5911,-0.5866,-0.5888,-0.5886,-0.5884,-0.5883,-0.5798,-0.5798,0,0,0,0,0,0,-0.6102,-0.6091,-0.6027,-0.6023,-0.6061,-0.602,-0.6013,-0.5999,-0.5958,-0.5953,-0.598,-0.5979,-0.592,-0.5914,-0.5908,-0.5876,-0.5885,-0.5882,-0.5881,-0.5799,-0.5798,-0.5798,0,0,0,0,0,0,-0.6104,-0.6096,-0.6029,-0.6056,-0.6047,-0.6018,-0.6003,-0.5998,-0.5985,-0.5952,-0.5947,-0.5972,-0.592,-0.5912,-0.5882,-0.5873,-0.5881,-0.5878,-0.5799,-0.5799,-0.5798,-0.5811,0,0,0,0,0,0,-0.6106,-0.6097,-0.6089,-0.6057,-0.6046,-0.6006,-0.6002,-0.5996,-0.5981,-0.598,-0.5944,-0.5938,-0.592,-0.5886,-0.5879,-0.5869,-0.5876,-0.58,-0.5799,-0.5798,-0.5811,-0.5811,-0.5811,0,0,0,0,0,-0.611,-0.6094,-0.6089,-0.6081,-0.6036,-0.6005,-0.5999,-0.598,-0.598,-0.5971,-0.595,-0.5939,-0.5876,-0.5883,-0.5875,-0.5864,-0.58,-0.5799,-0.5798,-0.5811,-0.5811,-0.5811,0,0,0,0,0,0,-0.6124,-0.6089,-0.6083,-0.6057,-0.6035,-0.6002,-0.5989,-0.598,-0.5955,-0.5955,-0.593,-0.5922,-0.5893,-0.5876,-0.5885,-0.5837,-0.5837,-0.5834,-0.585,-0.5849,-0.5849,-0.5853,-0.5874,0,0,0,0,0,-0.6125,-0.6105,-0.6075,-0.6054,-0.6044,-0.6019,-0.6005,-0.5992,-0.5967,-0.5956,-0.5933,-0.5907,-0.5881,-0.5864,-0.5838,-0.5809,-0.58,-0.5797,-0.5797,-0.5797,-0.5794,-0.5776,-0.5774,-0.5794,-0.5794,-0.5794,0,0,-0.6124,-0.6103,-0.6092,-0.6057,-0.6038,-0.6016,-0.601,-0.5988,-0.5971,-0.5952,-0.5922,-0.5904,-0.5873,-0.5843,-0.5829,-0.5827,-0.5786,-0.5795,-0.5795,-0.5793,-0.5774,-0.5772,-0.5771,-0.5793,-0.5794,-0.5794,0,0,-0.6113,-0.6096,-0.6077,-0.6058,-0.6031,-0.6014,-0.6009,-0.5978,-0.5966,-0.5936,-0.5922,-0.59,-0.5856,-0.5834,-0.5818,-0.5798,-0.5787,-0.5791,-0.5788,-0.5771,-0.5769,-0.5767,-0.5759,-0.5757,-0.5788,-0.5788,-0.5788,0,-0.6116,-0.6085,-0.6067,-0.6046,-0.603,-0.6015,-0.5994,-0.5976,-0.594,-0.5928,-0.5928,-0.5873,-0.5851,-0.5815,-0.581,-0.5798,-0.579,-0.5794,-0.5771,-0.5769,-0.5768,-0.5759,-0.5757,-0.5789,-0.5789,-0.5789,-0.5789,0,-0.6089,-0.6068,-0.6055,-0.6023,-0.6006,-0.5985,-0.5962,-0.5946,-0.5935,-0.5918,-0.5887,-0.586,-0.5829,-0.5819,-0.5807,-0.5781,-0.5781,-0.5776,-0.5775,-0.5766,-0.5758,-0.5755,-0.579,-0.5789,-0.5789,-0.5789,0,0,-0.6085,-0.6044,-0.604,-0.6025,-0.5993,-0.5975,-0.5952,-0.5923,-0.591,-0.5885,-0.5864,-0.5828,-0.5823,-0.5804,-0.579,-0.5774,-0.5759,-0.5771,-0.577,-0.5769,-0.5727,-0.573,-0.5727,-0.5752,-0.5752,-0.5751,-0.5729,0,-0.6069,-0.603,-0.6013,-0.5981,-0.596,-0.5945,-0.5925,-0.5902,-0.5885,-0.5863,-0.5843,-0.5817,-0.5814,-0.5802,-0.5787,-0.5765,-0.575,-0.5766,-0.573,-0.5729,-0.5738,-0.5723,-0.5726,-0.5706,-0.5726,-0.5725,-0.5725,0,-0.6045,-0.6023,-0.5989,-0.5959,-0.595,-0.5932,-0.5904,-0.5884,-0.5857,-0.5845,-0.5825,-0.5811,-0.5784,-0.5786,-0.5747,-0.5759,-0.5743,-0.573,-0.5728,-0.5723,-0.5726,-0.5716,-0.57,-0.5696,-0.572,-0.572,-0.5721,0,-0.6044,-0.6005,-0.598,-0.5968,-0.5933,-0.5921,-0.5905,-0.5879,-0.5862,-0.5837,-0.5825,-0.5797,-0.578,-0.5757,-0.5735,-0.5739,-0.5698,-0.5698,-0.5686,-0.5686,-0.5677,-0.5678,-0.5657,-0.5669,-0.5669,-0.5669,-0.5669,0,-0.6027,-0.6006,-0.5979,-0.5963,-0.5939,-0.592,-0.5896,-0.5879,-0.5856,-0.5835,-0.5819,-0.5799,-0.5772,-0.5748,-0.573,-0.57,-0.5693,-0.5681,-0.5677,-0.5682,-0.5684,-0.5671,-0.5671,-0.5668,-0.5668,-0.5669,-0.5669,0,-0.6021,-0.6002,-0.5974,-0.5944,-0.5935,-0.5919,-0.5892,-0.5875,-0.5858,-0.5831,-0.5824,-0.5796,-0.5767,-0.5743,-0.5704,-0.5692,-0.566,-0.5656,-0.567,-0.5668,-0.5656,-0.5657,-0.5625,-0.562,-0.5637,-0.5637,-0.5637,0,-0.6011,-0.5996,-0.5964,-0.595,-0.5936,-0.5913,-0.5897,-0.5876,-0.5859,-0.5827,-0.5813,-0.5784,-0.5759,-0.5713,-0.5687,-0.5657,-0.5651,-0.5642,-0.5646,-0.5652,-0.5649,-0.565,-0.5647,-0.5641,-0.5641,-0.5641,-0.5641,0,-0.5995,-0.5987,-0.5965,-0.594,-0.5921,-0.59,-0.5877,-0.5866,-0.5841,-0.5822,-0.5794,-0.5775,-0.5736,-0.5706,-0.5673,-0.5655,-0.5643,-0.564,-0.5635,-0.564,-0.5649,-0.5643,-0.5668,-0.5641,-0.5641,-0.5641,-0.5641,-0.5641,-0.5986,-0.5971,-0.5947,-0.5923,-0.5905,-0.5884,-0.5867,-0.5848,-0.5825,-0.5793,-0.5782,-0.5752,-0.5724,-0.5679,-0.566,-0.5635,-0.5634,-0.5627,-0.5625,-0.5624,-0.5624,-0.5654,-0.5629,-0.5629,-0.5629,-0.5629,-0.5629,0,-0.5968,-0.5952,-0.5931,-0.5901,-0.5882,-0.5875,-0.585,-0.5833,-0.5808,-0.5784,-0.5761,-0.5727,-0.5697,-0.567,-0.5639,-0.5624,-0.5617,-0.5616,-0.5616,-0.5612,-0.5627,-0.5634,-0.5622,-0.5622,-0.5622,-0.5622,-0.5622,-0.5622,-0.5957,-0.5931,-0.592,-0.5884,-0.5867,-0.584,-0.5826,-0.5806,-0.5787,-0.5751,-0.5727,-0.5711,-0.5684,-0.5651,-0.5623,-0.5616,-0.5604,-0.5604,-0.5595,-0.561,-0.5611,-0.5612,-0.5618,-0.5602,-0.5602,-0.5581,-0.5581,-0.5581]},{"header":{"parameterUnit":"m.s-1","parameterCategory":1,"la1":30.2991,"la2":30.254,"lo1":-89.0895,"lo2":-89.0444,"dy":0.0017,"dx":0.0017,"nx":28,"ny":28,"refTime":"2025-08-30T21:00:00:Z","depth":0,"parameterNumber":3,"parameterNumberName":"V-component_of_WINDS"},"data":[0,0,0,0,0,0,0,0,0,0,0,0,0,0,0,0,0,0,0,0,0,0,0,0,0,0,0,0,0,0,0,0,0,0,0,0,0,0,0,0,0,0,0,0,0,0,0,0,0,0,0,0,0,0,0,0,0,0,-3.3043,-3.3044,0,-3.315,-3.3151,-3.3153,-3.3221,-3.3222,-3.3222,-3.3223,-3.3326,-3.3328,-3.333,0,0,0,0,0,0,0,0,0,0,0,0,0,-3.2893,-3.2896,-3.3043,-3.3044,-3.3045,-3.315,-3.3151,-3.3153,-3.3221,-3.3222,-3.3222,-3.3223,-3.3325,-3.3328,-3.3331,0,0,0,0,0,0,0,0,0,0,0,0,0,-3.2975,-3.2896,-3.3042,-3.3092,-3.3098,-3.315,-3.3151,-3.3153,-3.3221,-3.3222,-3.3222,-3.3223,-3.3324,-3.3328,-3.3331,-3.334,0,0,-3.3342,-3.3343,0,0,0,0,0,0,0,0,-3.297,-3.298,-3.3084,-3.3089,-3.3095,-3.3173,-3.3137,-3.3215,-3.3221,-3.3174,-3.3223,-3.3223,-3.3274,-3.3282,-3.33,-3.3344,-3.3349,-3.3342,-3.3344,-3.3346,-3.3347,0,0,0,0,0,0,0,-3.2964,-3.2976,-3.3085,-3.3085,-3.3092,-3.3108,-3.312,-3.3152,-3.3219,-3.3178,-3.3183,-3.3196,-3.3277,-3.3297,-3.3303,-3.335,-3.3342,-3.3345,-3.3347,-3.3349,-3.3411,-3.341,0,0,0,0,0,0,-3.2952,-3.2971,-3.3082,-3.3088,-3.3033,-3.311,-3.3124,-3.3147,-3.3219,-3.323,-3.3195,-3.3198,-3.329,-3.3299,-3.3307,-3.3324,-3.3346,-3.3349,-3.3351,-3.3411,-3.341,-3.341,0,0,0,0,0,0,-3.2948,-3.2961,-3.3077,-3.3031,-3.3047,-3.3112,-3.3138,-3.3149,-3.3169,-3.3232,-3.3243,-3.3203,-3.3291,-3.3302,-3.3332,-3.3329,-3.3351,-3.3354,-3.3412,-3.3411,-3.341,-3.3357,0,0,0,0,0,0,-3.2943,-3.2959,-3.2964,-3.3031,-3.3049,-3.3102,-3.3138,-3.3151,-3.3175,-3.3181,-3.3242,-3.3253,-3.3293,-3.3327,-3.3336,-3.3334,-3.3356,-3.3412,-3.3411,-3.341,-3.3359,-3.3354,-3.335,0,0,0,0,0,-3.2938,-3.2942,-3.2963,-3.2976,-3.3057,-3.3101,-3.3112,-3.316,-3.3175,-3.318,-3.3221,-3.3251,-3.3328,-3.3329,-3.334,-3.3339,-3.3413,-3.3412,-3.341,-3.3361,-3.3355,-3.335,0,0,0,0,0,0,-3.2869,-3.2952,-3.2976,-3.3003,-3.3045,-3.3113,-3.312,-3.3151,-3.3188,-3.3191,-3.3247,-3.3261,-3.3286,-3.3315,-3.3316,-3.3353,-3.3374,-3.3375,-3.3332,-3.3327,-3.3323,-3.3315,-3.3359,0,0,0,0,0,-3.2858,-3.2889,-3.2958,-3.2975,-3.2995,-3.3054,-3.3075,-3.3109,-3.3154,-3.3171,-3.3214,-3.3255,-3.3289,-3.331,-3.3344,-3.3364,-3.3379,-3.3369,-3.3364,-3.336,-3.336,-3.3376,-3.3372,-3.3407,-3.3407,-3.3407,0,0,-3.2833,-3.2882,-3.2897,-3.2962,-3.2999,-3.3029,-3.3068,-3.3097,-3.312,-3.3175,-3.3207,-3.324,-3.329,-3.3316,-3.3329,-3.3341,-3.3355,-3.3359,-3.3355,-3.3358,-3.3374,-3.3371,-3.3368,-3.3406,-3.3406,-3.3406,0,0,-3.2804,-3.2844,-3.2864,-3.2901,-3.2957,-3.2997,-3.3002,-3.3066,-3.3091,-3.3126,-3.3168,-3.3195,-3.3252,-3.3286,-3.3311,-3.33,-3.3329,-3.3309,-3.3285,-3.3299,-3.3297,-3.3295,-3.3292,-3.329,-3.3309,-3.3309,-3.3309,0,-3.2766,-3.2815,-3.2869,-3.2898,-3.2925,-3.298,-3.3,-3.3033,-3.3096,-3.3114,-3.3127,-3.3202,-3.3239,-3.3275,-3.3272,-3.329,-3.3297,-3.3302,-3.3293,-3.3292,-3.329,-3.3288,-3.3287,-3.3306,-3.3306,-3.3307,-3.3307,0,-3.2766,-3.2799,-3.2808,-3.2872,-3.2901,-3.2924,-3.2982,-3.3004,-3.3037,-3.3075,-3.311,-3.3157,-3.3203,-3.3214,-3.3243,-3.3255,-3.3261,-3.3283,-3.3305,-3.3284,-3.3283,-3.3282,-3.3302,-3.3303,-3.3304,-3.3305,0,0,-3.2694,-3.2791,-3.2794,-3.2825,-3.2893,-3.2919,-3.2946,-3.2994,-3.3013,-3.3055,-3.308,-3.3128,-3.3151,-3.3179,-3.3213,-3.3225,-3.3216,-3.3246,-3.3249,-3.324,-3.3233,-3.3216,-3.3214,-3.3236,-3.3236,-3.3236,-3.3229,0,-3.2676,-3.273,-3.2781,-3.2816,-3.2848,-3.2902,-3.2926,-3.297,-3.3007,-3.3039,-3.3079,-3.3113,-3.3139,-3.3157,-3.3172,-3.3214,-3.3215,-3.3215,-3.3259,-3.326,-3.3245,-3.3214,-3.3196,-3.3187,-3.3229,-3.3229,-3.3229,0,-3.2661,-3.2706,-3.2745,-3.2813,-3.2829,-3.2849,-3.2899,-3.2929,-3.298,-3.3007,-3.3041,-3.3078,-3.3109,-3.3129,-3.3172,-3.3171,-3.3192,-3.3216,-3.3217,-3.3222,-3.3243,-3.3219,-3.3185,-3.3183,-3.3228,-3.3228,-3.3229,0,-3.2607,-3.2676,-3.271,-3.2734,-3.2814,-3.2828,-3.2861,-3.2914,-3.2941,-3.2984,-3.3002,-3.3047,-3.3071,-3.3105,-3.3154,-3.3163,-3.3193,-3.3215,-3.3215,-3.3214,-3.3218,-3.3217,-3.3187,-3.3231,-3.3231,-3.3231,-3.3231,0,-3.2582,-3.2603,-3.2687,-3.2707,-3.2734,-3.2793,-3.2817,-3.2855,-3.2902,-3.293,-3.2978,-3.3003,-3.3067,-3.3099,-3.3137,-3.3169,-3.3179,-3.32,-3.321,-3.3197,-3.3194,-3.3211,-3.3213,-3.3231,-3.3231,-3.3231,-3.3231,0,-3.2525,-3.2582,-3.2622,-3.2696,-3.2715,-3.2732,-3.2795,-3.2816,-3.2858,-3.2893,-3.2904,-3.2968,-3.301,-3.3063,-3.3119,-3.3145,-3.3172,-3.3187,-3.3155,-3.3161,-3.3158,-3.3158,-3.3138,-3.3139,-3.3181,-3.3181,-3.318,0,-3.2505,-3.2524,-3.2602,-3.2626,-3.2659,-3.2696,-3.2725,-3.2785,-3.2812,-3.2875,-3.2889,-3.2934,-3.2974,-3.3037,-3.3088,-3.3132,-3.3149,-3.3139,-3.3155,-3.3142,-3.315,-3.3149,-3.3151,-3.3134,-3.3134,-3.3133,-3.3132,0,-3.2465,-3.2493,-3.2534,-3.2586,-3.262,-3.2663,-3.2707,-3.2724,-3.2792,-3.2821,-3.2866,-3.2897,-3.2957,-3.3002,-3.3054,-3.3087,-3.3121,-3.3127,-3.313,-3.3116,-3.3097,-3.3109,-3.3145,-3.3127,-3.3128,-3.3128,-3.3128,-3.3129,-3.2427,-3.2447,-3.2507,-3.2551,-3.2592,-3.2634,-3.2659,-3.2706,-3.2745,-3.28,-3.2833,-3.2876,-3.2929,-3.3003,-3.3035,-3.307,-3.3082,-3.3085,-3.3086,-3.3086,-3.3083,-3.3092,-3.3079,-3.3079,-3.3079,-3.308,-3.308,0,-3.239,-3.2432,-3.2473,-3.2536,-3.2572,-3.2604,-3.2656,-3.2683,-3.2723,-3.277,-3.281,-3.2862,-3.2907,-3.2962,-3.3011,-3.3028,-3.3045,-3.3038,-3.3038,-3.3045,-3.3068,-3.3062,-3.3024,-3.3024,-3.3024,-3.3024,-3.3024,-3.3024,-3.2375,-3.2413,-3.2448,-3.2507,-3.2548,-3.2594,-3.2621,-3.266,-3.2699,-3.2756,-3.2795,-3.2832,-3.2883,-3.2937,-3.2979,-3.2994,-3.301,-3.2999,-3.3019,-3.3038,-3.3043,-3.3048,-3.3043,-3.3002,-3.3002,-3.2994,-3.2994,-3.2993]}]]